Wind_Speed
9 11 13 15 17 19 22 24 26 27 30 31 31 30 29 30 33 36 36 37 38 37 37 38 38 38 37 35 34 37 37 37 38 38 37 40 41 39 39 40 40 42 33 37 34 37 36
11 12 13 15 17 19 22 25 28 29 31 33 35 37 37 32 31 32 33 35 36 39 41 42 42 42 42 40 39 40 41 40 39 38 37 39 41 43 46 43 45 44 41 40 39 34 39
10 11 12 15 18 22 24 26 28 29 30 33 36 37 36 35 32 32 35 34 36 38 37 40 43 43 43 44 46 44 45 44 43 41 40 41 42 44 43 43 45 47 46 44 39 34 42
11 11 13 15 18 21 24 27 29 31 34 37 38 40 38 34 34 33 34 34 35 35 37 37 38 41 43 43 46 49 50 48 50 47 46 45 45 46 47 45 46 46 47 43 40 37 40
12 14 16 17 19 24 27 29 31 33 35 37 39 39 40 38 37 35 34 35 36 36 36 37 39 40 39 40 41 44 47 48 48 47 49 50 50 50 53 53 53 48 43 44 47 38 49
14 16 18 19 25 29 30 31 33 36 35 36 36 38 36 35 36 37 37 35 34 36 37 37 37 38 39 40 41 42 44 45 48 48 49 48 51 54 57 56 54 45 50 51 50 47 50
19 20 22 26 30 33 34 34 36 36 35 36 37 38 38 37 39 39 40 39 38 38 34 38 41 41 43 43 42 43 45 46 47 50 49 50 54 54 51 50 52 55 55 55 54 49 53
23 26 28 30 35 34 34 37 37 37 36 37 39 37 41 40 38 39 38 38 40 41 37 41 41 44 46 49 50 50 49 48 50 49 50 51 54 50 50 54 56 56 58 57 55 54 56
27 27 29 33 34 36 38 39 39 37 37 39 40 40 43 45 44 47 43 45 46 43 47 49 50 55 57 58 58 57 54 54 54 56 53 56 55 54 53 52 54 53 53 46 49 46 48
26 30 31 36 39 42 43 41 39 39 39 42 43 44 45 50 52 51 51 52 54 58 63 65 61 64 65 65 67 68 66 67 67 62 60 66 61 56 58 58 52 55 44 51 55 55 57
28 31 35 41 43 46 44 42 39 41 44 46 46 47 50 54 57 56 54 57 60 63 67 71 73 74 75 75 75 80 78 79 78 77 75 73 68 61 63 61 57 64 56 55 58 60 60
36 38 41 43 47 46 43 43 45 48 49 52 50 55 55 58 60 60 62 66 68 70 80 78 79 80 81 81 81 82 83 87 86 80 79 84 71 77 69 64 62 64 66 63 63 63 69
36 39 42 44 44 45 44 46 46 48 50 52 57 56 61 64 67 67 72 74 76 79 83 85 86 87 89 91 92 90 86 84 79 76 80 76 80 75 72 73 67 66 65 66 65 67 75
39 40 42 45 46 46 46 47 50 50 55 56 61 65 67 70 71 77 78 81 85 89 92 95 96 97 97 98 88 84 83 78 70 73 78 78 79 75 71 72 70 67 64 60 67 67 67
42 45 47 47 47 47 49 51 52 55 59 63 66 71 73 78 78 81 87 91 94 100 102 105 108 103 93 84 77 78 70 62 61 63 58 56 56 65 60 67 68 69 63 61 55 56 57
44 46 46 46 48 50 53 56 59 61 64 69 73 76 79 82 86 89 95 98 102 106 108 105 98 91 79 70 63 55 51 54 57 47 45 48 56 53 44 47 40 40 50 55 56 54 59
45 46 46 48 51 54 58 60 63 68 73 77 81 84 87 90 92 96 100 103 106 105 97 85 71 59 53 51 48 43 41 34 37 48 59 53 53 44 45 31 50 36 35 51 49 43 48
45 47 48 51 55 58 62 66 71 74 79 83 86 89 92 93 97 101 104 104 100 81 63 53 50 47 43 37 41 35 32 31 30 31 35 45 63 67 58 55 43 45 49 30 49 52 47
46 47 51 55 58 63 66 71 76 81 84 88 90 92 96 99 102 103 100 80 64 56 51 48 44 41 38 33 31 25 22 19 23 25 29 31 38 36 33 34 37 41 50 48 47 36 34
48 51 55 59 63 68 73 77 80 84 87 90 91 94 99 102 99 88 68 54 49 49 47 45 39 33 29 25 25 29 29 22 20 24 28 31 29 35 33 19 27 42 41 48 50 58 41
51 54 59 64 68 72 76 80 82 86 89 91 94 97 98 87 72 60 56 52 49 48 44 43 33 24 26 30 26 23 26 28 29 32 28 31 36 34 29 22 21 34 36 39 39 36 30
54 58 63 66 70 74 78 82 85 88 92 95 96 96 89 69 54 53 50 48 47 45 42 39 33 23 22 29 32 33 33 30 32 26 28 31 29 24 21 22 28 23 36 40 45 44 44
57 62 65 69 73 78 81 84 86 90 94 94 95 86 73 58 54 52 48 47 43 40 36 35 30 29 28 27 30 29 28 25 24 20 18 25 19 19 11 18 11 17 18 32 35 26 26
62 64 68 71 77 79 82 84 89 93 94 93 83 71 64 58 50 50 48 44 39 35 33 31 29 29 30 26 24 23 21 19 16 19 15 16 15 15 9 11 21 19 18 18 20 26 26
62 67 71 75 77 80 83 88 90 91 91 78 69 66 62 59 52 50 46 42 36 33 30 30 28 30 30 23 23 20 13 7 7 10 9 11 10 5 5 8 8 12 13 16 17 20 21
65 70 73 75 77 82 86 89 90 88 79 67 66 64 60 60 54 51 45 40 36 31 27 28 28 28 28 22 21 17 10 11 14 10 11 12 10 9 14 13 13 13 15 17 18 17 19
68 70 72 75 80 83 86 88 87 78 69 68 64 63 59 59 55 49 42 38 35 33 27 26 27 27 25 24 20 17 12 13 12 16 15 15 14 15 13 15 17 19 22 25 25 25 28
67 69 72 77 82 85 87 85 74 69 69 67 65 62 58 55 50 43 41 36 33 30 27 26 25 25 27 28 23 20 19 20 22 24 25 23 22 19 19 20 21 23 25 28 30 29 31
67 70 75 79 84 86 84 73 68 68 67 66 65 59 50 46 41 43 39 34 32 30 27 24 26 29 25 30 29 27 24 25 28 29 29 28 26 25 26 26 28 28 27 28 28 30 29
Wind_Direction
343 349 352 6 15 12 11 11 8 4 1 357 354 349 340 323 316 312 306 303 302 298 295 295 295 296 295 297 298 298 299 298 296 294 293 288 284 282 280 275 274 273 277 268 268 269 275
334 345 354 4 6 4 1 357 354 353 354 352 350 348 343 340 327 315 308 303 299 297 295 291 289 290 291 296 291 294 296 296 295 293 290 288 285 281 277 280 276 276 273 271 271 273 275
327 343 358 356 354 352 349 344 343 343 344 346 346 346 343 336 330 327 317 309 305 302 299 295 287 284 284 291 288 289 289 290 291 290 288 285 284 282 280 276 276 276 275 272 273 274 272
320 335 343 343 342 340 339 338 339 340 340 340 344 343 341 338 333 327 324 322 315 311 308 304 300 294 291 288 286 286 285 286 285 287 287 285 283 282 281 280 275 274 275 279 277 271 266
313 326 330 334 333 330 327 327 332 332 333 335 340 341 339 339 335 329 323 320 319 316 311 307 305 303 300 298 294 290 288 285 284 283 282 282 281 283 279 278 275 274 281 276 272 266 265
304 310 312 317 320 321 319 317 321 324 325 330 335 336 336 340 339 334 329 323 322 318 315 311 309 305 299 298 296 296 291 286 283 282 281 283 282 278 273 274 282 280 269 268 271 268 267
299 300 304 310 316 318 319 318 318 320 321 323 329 332 333 334 337 331 329 327 323 322 316 312 308 305 301 300 297 294 291 290 286 282 280 278 278 281 281 277 271 269 270 271 270 270 271
302 304 306 312 315 317 319 316 316 319 318 320 325 328 329 325 327 327 324 322 320 319 317 318 309 306 304 300 298 294 292 287 283 282 280 280 282 279 273 271 272 272 272 273 272 272 271
303 305 306 309 310 314 314 313 314 317 317 314 319 324 324 325 325 322 319 319 316 314 314 316 311 308 306 307 303 297 292 284 283 282 283 278 278 275 273 273 271 271 271 271 270 265 266
301 304 309 307 308 313 312 313 314 317 317 317 319 319 320 322 319 318 316 315 315 318 316 312 311 310 310 305 301 297 293 291 286 282 279 275 276 278 272 270 267 266 269 265 266 266 266
301 303 305 302 306 312 311 310 309 313 314 319 318 315 316 319 320 315 317 317 317 315 310 311 311 309 307 303 299 298 294 290 287 288 285 284 277 270 271 273 269 270 268 265 265 265 265
299 300 301 303 306 308 311 311 308 303 310 312 316 317 318 316 318 314 312 314 316 313 308 312 309 307 304 302 298 294 291 289 288 285 283 282 279 277 273 265 265 267 264 265 266 266 263
302 302 303 306 307 309 309 309 310 308 310 312 312 314 317 316 313 314 314 314 311 309 312 310 308 306 303 300 299 296 291 287 280 275 275 271 273 268 263 263 260 258 261 266 266 263 265
302 304 306 308 308 307 307 309 310 309 310 313 314 315 316 315 314 314 315 312 310 312 310 309 307 305 305 302 296 292 288 281 271 265 266 265 265 261 258 256 258 257 256 255 258 262 267
300 303 305 306 305 306 307 308 308 311 312 315 317 317 316 315 316 316 316 315 314 312 309 306 305 307 304 297 286 285 275 270 270 269 259 260 256 262 260 256 254 253 252 257 258 254 256
305 306 306 306 306 307 308 309 311 313 314 314 316 315 315 315 315 316 316 315 312 312 310 310 309 306 299 294 291 285 278 268 259 251 248 253 259 261 260 251 249 258 257 256 248 248 246
306 306 306 307 307 306 307 310 312 313 313 314 316 316 315 316 317 316 312 311 310 312 315 311 306 306 303 301 298 296 295 288 273 254 248 253 249 261 245 241 233 237 247 246 251 252 258
308 306 307 307 307 307 310 311 310 312 314 315 316 316 317 316 314 312 311 314 318 318 311 311 312 309 304 302 300 300 298 294 290 287 264 255 254 256 260 268 254 242 238 247 235 248 259
306 306 308 309 310 311 311 312 312 313 315 315 315 317 316 314 312 313 317 323 321 316 317 316 317 311 304 305 304 303 302 299 287 297 299 292 251 259 261 263 243 240 239 244 244 248 253
308 309 309 311 311 312 313 314 314 315 315 315 317 316 315 317 318 323 326 323 322 320 324 325 324 314 303 302 291 299 302 299 297 303 298 291 287 275 268 268 254 247 245 250 245 249 252
307 308 310 312 313 313 313 314 315 314 315 317 317 316 318 323 327 329 327 326 326 324 325 326 329 311 309 309 298 300 299 295 293 295 289 288 284 281 274 246 259 253 253 249 244 249 256
309 311 311 313 312 313 315 316 315 316 317 317 317 318 323 330 328 327 327 326 324 324 333 330 323 315 307 311 309 306 304 312 313 285 274 290 293 280 275 262 265 264 262 262 246 275 266
311 312 313 312 313 315 316 315 317 318 317 318 321 324 329 331 325 325 325 325 324 321 329 332 320 316 313 314 310 306 309 302 312 303 297 311 302 276 273 255 250 246 264 268 274 276 276
313 313 313 313 316 316 316 318 318 318 319 322 325 327 328 330 326 324 324 322 320 319 321 326 321 314 318 314 313 317 323 310 314 310 338 306 311 283 252 266 259 263 258 262 269 273 269
313 313 314 316 316 317 319 318 319 320 322 325 327 327 325 326 323 322 320 317 319 318 312 315 317 320 323 325 322 319 317 306 320 355 348 7 350 316 306 286 257 260 260 266 273 267 270
313 313 315 316 318 320 319 319 320 322 325 327 326 325 322 321 322 320 318 318 317 315 310 301 310 318 325 321 332 330 322 326 322 329 325 331 338 284 287 284 283 276 275 275 283 276 287
313 315 316 318 319 319 319 320 321 324 325 326 323 322 319 317 318 317 316 317 315 316 313 308 307 307 315 317 316 321 308 295 287 314 309 309 307 294 289 279 277 283 292 289 283 282 280
314 316 318 319 318 318 319 321 325 324 324 324 322 319 317 316 317 313 316 315 312 312 315 315 315 315 318 316 313 300 295 290 289 291 298 300 297 290 287 287 287 283 284 283 278 274 279
316 317 318 319 318 318 319 324 325 324 324 323 322 320 316 314 306 305 313 308 303 303 306 307 311 311 307 309 312 306 301 295 292 289 290 292 288 284 285 287 284 281 280 279 276 276 279
Height
5816 5814 5813 5811 5809 5806 5803 5801 5798 5795 5792 5788 5785 5782 5780 5776 5772 5768 5765 5763 5761 5758 5756 5753 5751 5750 5748 5748 5748 5743 5742 5739 5737 5736 5734 5732 5730 5730 5729 5729 5728 5725 5733 5728 5730 5727 5728
5816 5814 5812 5810 5808 5805 5802 5799 5796 5793 5790 5787 5783 5778 5775 5771 5768 5764 5760 5756 5754 5751 5748 5745 5743 5742 5741 5742 5739 5737 5734 5731 5729 5729 5726 5724 5722 5721 5718 5721 5718 5718 5721 5721 5720 5723 5720
5815 5813 5811 5809 5807 5804 5801 5798 5795 5791 5788 5784 5780 5775 5770 5766 5762 5758 5753 5750 5748 5744 5740 5737 5735 5733 5733 5732 5727 5727 5725 5723 5720 5718 5718 5715 5712 5710 5710 5710 5709 5706 5707 5708 5713 5715 5710
5814 5812 5810 5807 5805 5802 5799 5796 5792 5788 5785 5780 5776 5770 5765 5762 5757 5753 5749 5745 5741 5738 5734 5731 5727 5724 5723 5723 5719 5716 5715 5712 5710 5708 5706 5704 5702 5701 5699 5698 5696 5696 5695 5698 5702 5701 5700
5813 5811 5808 5806 5803 5800 5796 5793 5789 5785 5781 5776 5772 5767 5761 5757 5752 5748 5743 5738 5734 5731 5727 5723 5720 5717 5715 5713 5711 5707 5704 5701 5699 5697 5695 5692 5691 5690 5687 5685 5682 5684 5687 5685 5683 5688 5682
5810 5808 5805 5803 5800 5797 5793 5789 5785 5781 5776 5771 5767 5762 5757 5752 5747 5743 5737 5732 5728 5725 5720 5715 5712 5711 5707 5704 5701 5697 5694 5690 5688 5685 5683 5681 5679 5677 5674 5672 5675 5675 5670 5670 5671 5672 5669
5808 5805 5802 5799 5796 5792 5788 5784 5780 5775 5771 5766 5761 5756 5751 5747 5742 5738 5733 5729 5726 5722 5717 5712 5705 5703 5697 5695 5693 5689 5683 5680 5677 5674 5672 5668 5665 5663 5665 5663 5660 5656 5656 5657 5659 5659 5655
5804 5801 5798 5795 5791 5787 5783 5778 5774 5769 5765 5760 5754 5749 5745 5740 5735 5731 5726 5722 5718 5715 5713 5706 5701 5695 5692 5687 5682 5677 5673 5669 5665 5662 5657 5655 5654 5652 5649 5646 5644 5645 5643 5646 5646 5643 5640
5799 5796 5793 5789 5785 5781 5777 5772 5767 5763 5759 5754 5748 5742 5738 5733 5728 5723 5718 5713 5708 5703 5699 5696 5691 5684 5679 5674 5669 5662 5659 5653 5651 5648 5645 5641 5641 5636 5634 5633 5630 5632 5630 5632 5630 5628 5629
5795 5791 5788 5784 5780 5775 5770 5766 5761 5756 5751 5745 5740 5734 5730 5724 5720 5713 5708 5702 5695 5690 5684 5680 5675 5669 5663 5658 5653 5647 5642 5638 5633 5629 5624 5622 5626 5624 5619 5619 5615 5615 5619 5614 5613 5611 5613
5789 5786 5782 5777 5773 5769 5764 5759 5754 5749 5742 5737 5731 5726 5719 5713 5709 5701 5696 5689 5682 5676 5667 5662 5656 5649 5643 5638 5631 5624 5620 5613 5612 5605 5601 5605 5605 5605 5601 5606 5598 5601 5599 5597 5595 5594 5594
5783 5780 5775 5771 5767 5761 5756 5751 5746 5740 5735 5728 5721 5716 5709 5700 5695 5689 5681 5673 5667 5660 5650 5645 5640 5630 5622 5614 5607 5600 5595 5589 5582 5578 5575 5582 5581 5575 5580 5583 5579 5581 5579 5577 5577 5577 5568
5777 5773 5768 5764 5758 5753 5748 5742 5736 5731 5725 5717 5709 5702 5695 5690 5682 5673 5666 5659 5650 5641 5630 5624 5617 5609 5599 5591 5582 5572 5569 5564 5557 5548 5549 5551 5553 5555 5552 5550 5556 5558 5559 5555 5555 5552 5552
5770 5765 5760 5755 5750 5744 5738 5732 5726 5720 5713 5705 5696 5688 5680 5673 5665 5657 5648 5638 5628 5618 5608 5593 5589 5583 5570 5564 5555 5547 5538 5531 5527 5524 5516 5516 5528 5531 5534 5531 5535 5534 5539 5536 5534 5534 5542
5761 5756 5751 5746 5740 5735 5729 5723 5716 5709 5700 5691 5683 5674 5666 5657 5648 5639 5628 5614 5603 5589 5582 5570 5562 5551 5546 5537 5514 5517 5514 5511 5504 5504 5504 5498 5498 5504 5508 5511 5513 5517 5512 5526 5519 5522 5519
5753 5748 5743 5737 5732 5726 5720 5712 5704 5695 5686 5678 5669 5659 5650 5639 5628 5618 5607 5592 5579 5562 5549 5538 5527 5523 5510 5502 5497 5491 5492 5495 5489 5492 5485 5482 5475 5490 5493 5494 5502 5500 5504 5505 5503 5499 5500
5744 5739 5734 5729 5723 5715 5708 5700 5691 5682 5673 5663 5653 5641 5631 5621 5608 5596 5585 5570 5560 5544 5528 5514 5503 5494 5487 5481 5477 5472 5471 5471 5470 5473 5472 5468 5468 5468 5474 5479 5483 5489 5490 5491 5490 5488 5487
5736 5732 5726 5719 5712 5705 5696 5687 5678 5669 5659 5647 5636 5624 5611 5603 5590 5573 5561 5545 5532 5518 5508 5499 5490 5479 5472 5468 5464 5462 5460 5458 5455 5454 5456 5454 5452 5454 5459 5467 5467 5472 5476 5474 5472 5472 5476
5728 5722 5716 5709 5701 5692 5683 5674 5665 5656 5646 5635 5620 5605 5592 5577 5567 5555 5540 5526 5511 5503 5495 5487 5479 5470 5464 5461 5456 5455 5454 5454 5449 5448 5444 5443 5443 5440 5444 5450 5454 5456 5459 5458 5456 5458 5461
5719 5712 5705 5697 5689 5681 5671 5661 5652 5641 5629 5617 5607 5591 5573 5553 5540 5526 5519 5512 5505 5495 5485 5476 5468 5461 5456 5456 5453 5448 5447 5447 5445 5442 5439 5434 5433 5433 5433 5439 5440 5444 5445 5444 5446 5449 5449
5708 5701 5693 5686 5677 5667 5657 5647 5636 5623 5611 5601 5587 5573 5555 5537 5527 5515 5505 5497 5491 5485 5479 5465 5463 5454 5451 5448 5446 5445 5442 5440 5440 5435 5430 5426 5424 5424 5426 5429 5429 5431 5432 5433 5435 5438 5442
5698 5691 5683 5673 5664 5655 5645 5631 5618 5608 5595 5582 5567 5554 5542 5526 5514 5508 5499 5492 5483 5477 5466 5463 5455 5453 5449 5444 5439 5436 5433 5433 5426 5424 5420 5417 5415 5413 5415 5418 5421 5422 5424 5425 5427 5428 5430
5688 5680 5671 5662 5652 5642 5630 5619 5606 5593 5577 5560 5545 5535 5525 5517 5506 5497 5490 5482 5476 5466 5464 5453 5449 5446 5444 5439 5434 5430 5426 5423 5419 5416 5415 5411 5408 5407 5410 5410 5414 5416 5417 5418 5419 5421 5422
5677 5669 5661 5650 5640 5629 5617 5604 5589 5575 5561 5543 5530 5519 5512 5509 5496 5487 5482 5475 5469 5461 5456 5451 5444 5440 5438 5433 5429 5424 5420 5417 5416 5414 5408 5406 5404 5402 5405 5406 5407 5408 5408 5411 5412 5413 5413
5667 5659 5650 5639 5628 5615 5604 5590 5575 5560 5544 5527 5514 5507 5499 5496 5488 5482 5472 5466 5462 5456 5450 5443 5440 5435 5431 5427 5423 5419 5418 5415 5413 5410 5408 5406 5404 5402 5402 5401 5402 5403 5404 5405 5405 5406 5406
5657 5648 5637 5627 5616 5604 5591 5575 5560 5543 5529 5517 5504 5494 5486 5478 5478 5470 5462 5455 5451 5449 5446 5440 5435 5429 5425 5422 5418 5414 5412 5411 5410 5408 5406 5404 5403 5402 5400 5398 5398 5399 5399 5399 5399 5400 5400
5646 5637 5626 5615 5603 5590 5574 5559 5545 5531 5517 5509 5496 5484 5476 5468 5466 5458 5451 5446 5441 5438 5435 5432 5428 5425 5421 5417 5415 5412 5410 5408 5405 5403 5403 5402 5400 5399 5397 5395 5395 5394 5393 5392 5393 5396 5390
5635 5626 5615 5603 5591 5576 5560 5545 5531 5518 5507 5500 5488 5475 5465 5458 5452 5445 5443 5438 5433 5429 5426 5424 5421 5418 5415 5412 5410 5407 5404 5402 5400 5398 5396 5395 5394 5393 5391 5390 5390 5388 5387 5386 5385 5384 5382
5625 5614 5603 5590 5577 5562 5547 5533 5520 5507 5497 5486 5477 5466 5458 5451 5444 5439 5434 5429 5425 5422 5420 5417 5414 5410 5407 5404 5402 5399 5398 5396 5393 5390 5388 5387 5387 5385 5385 5382 5381 5379 5377 5376 5374 5373 5373